Location: Edisto_Beach
(32.4790°N, 80.3350°W)
Time: 17:29:07
(UTC-04:00)

Amateur Radio Satellites - All Passes

Search period start: 31 October 2014 16:59
Search period end: 01 November 2014 16:59
Location: Edisto_Beach, 32.4790°N, 80.3350°W

Satellite Date Start Highest point End Downlink Frequencies (MHz)
Time Altitude Azimuth
TMSAT-1 31 Oct 16:59:06 17:02:00 15° 267° (W) 17:04:54 436.925 FM
ISS 31 Oct 17:10:49 17:13:33 23° 37° (NE) 17:16:17 145.800 FM
Uosat F 31 Oct 17:32:17 17:37:08 49° 260° (W) 17:42:01 435.120 FM
AO-7 31 Oct 17:47:27 17:55:02 40° 260° (W) 18:02:41 29.400 - 29.500 MHz
OPAL 31 Oct 18:06:32 18:10:57 32° 100° (E) 18:15:21 ?
JAS-2 31 Oct 18:34:46 18:40:44 60° 260° (W) 18:47:33 435.800 - 435.900 CW/SSB, 435.910 FM
Hamsat 31 Oct 18:38:33 18:42:43 70° 259° (W) 18:46:53 145.90 MHz
KITSAT 1 31 Oct 18:41:24 18:43:23 11° 38° (NE) 18:45:21 435.175 FM
ISS 31 Oct 18:47:21 18:50:12 26° 231° (SW) 18:53:01 145.800 FM
SO-67 31 Oct 19:22:10 19:25:19 35° 75° (ENE) 19:28:28 435.3500 MHz FM
RS-15 31 Oct 19:39:50 19:46:42 19° 101° (E) 19:53:28 29.354 - 29.394 USB, Beacon 29.352 USB
OPAL 31 Oct 19:45:49 19:49:36 23° 293° (WNW) 19:53:24 ?
STRAND 1 31 Oct 20:02:44 20:07:51 67° 102° (ESE) 20:12:56 ?
HO-68 31 Oct 20:04:19 20:08:41 18° 60° (ENE) 20:13:04 435.675 MHz FM
AO-40 31 Oct 20:07:55 22:21:32 21° 107° (ESE) 23:30:32 Beacon 2401.320
KITSAT 1 31 Oct 20:32:49 20:40:43 55° 59° (ENE) 20:48:34 435.175 FM
SO-50 31 Oct 20:46:13 20:51:01 57° 60° (ENE) 20:55:50 436.795 FM
Oscar 10/S400 31 Oct 20:55:33 21:34:49 63° 203° (SSW) 07:42:34 145.825 - 145.975 CW/USB, Beacon 145.810 USB
Oscar 11 31 Oct 21:22:38 21:25:07 15° 68° (ENE) 21:27:35 145.825 FM, Beacon 2401.500 USB
UOSAT-12 31 Oct 21:30:02 21:32:48 15° 49° (NE) 21:35:33 437.025 FM, 437.400 FM
FUNcube-1 31 Oct 21:42:12 21:42:44 10° 66° (ENE) 21:43:15 145.950 - 145.970 MHz USB
STRAND 1 31 Oct 21:44:30 21:46:24 12° 296° (WNW) 21:48:18 ?
MaSat-1 31 Oct 21:46:30 21:49:58 28° 108° (ESE) 21:53:11 437.345 MHz
RS-15 31 Oct 21:46:32 21:57:38 85° 297° (WNW) 22:08:36 29.354 - 29.394 USB, Beacon 29.352 USB
HO-68 31 Oct 21:48:25 21:55:33 76° 256° (WSW) 22:02:46 435.675 MHz FM
UKube-1 31 Oct 22:21:47 22:26:08 88° 78° (ENE) 22:30:31 145.840 MHz, 145.915 MHz
SO-50 31 Oct 22:28:54 22:31:04 13° 253° (WSW) 22:33:15 436.795 FM
KITSAT 1 31 Oct 22:29:08 22:35:35 27° 255° (WSW) 22:42:03 435.175 FM
ZACube-1 31 Oct 22:31:33 22:35:49 41° 74° (ENE) 22:40:01 437.345 MHz
Oscar 11 31 Oct 22:56:58 23:00:56 36° 262° (W) 23:04:56 145.825 FM, Beacon 2401.500 USB
UOSAT-12 31 Oct 23:08:41 23:13:16 53° 245° (WSW) 23:17:43 437.025 FM, 437.400 FM
FUNcube-1 31 Oct 23:14:04 23:18:34 61° 259° (W) 23:23:00 145.950 - 145.970 MHz USB
MaSat-1 31 Oct 23:22:48 23:25:17 16° 298° (WNW) 23:27:38 437.345 MHz
RS-15 01 Nov 00:03:47 00:11:42 22° 321° (NW) 00:19:41 29.354 - 29.394 USB, Beacon 29.352 USB
ZACube-1 01 Nov 00:09:52 00:12:17 14° 266° (W) 00:14:42 437.345 MHz
Oscar 16 01 Nov 01:44:44 01:47:38 15° 94° (E) 01:50:31 437.025 USB, Beacon 2401.1428
Sapphire 01 Nov 01:50:54 01:55:31 30° 108° (ESE) 02:00:09 437.095 MHz 1200 baud AX-25 AFSK
PCSat 01 Nov 02:11:46 02:17:00 53° 111° (ESE) 02:22:15 145.825 MHz
AO-Echo 01 Nov 02:15:33 02:18:50 16° 93° (E) 02:22:03 ?
JAS-1B 01 Nov 02:17:17 02:24:26 43° 100° (E) 02:32:46 435.800 - 435.900 CW/SSB
Uribyol 2 01 Nov 02:19:12 02:21:29 13° 93° (E) 02:23:45 436.500 FM
ITAMSAT 1 01 Nov 02:26:47 02:29:39 15° 94° (E) 02:32:31 435.822 SSB
Oscar 19 01 Nov 02:35:01 02:40:01 52° 100° (E) 02:45:00 437.125 CW, 437.150 USB
PANSAT 01 Nov 03:06:53 03:09:24 17° 159° (SSE) 03:11:54 not established
AO-27 01 Nov 03:12:44 03:17:47 48° 100° (E) 03:22:46 436.795 MHz FM
Oscar 16 01 Nov 03:22:16 03:27:11 49° 287° (WNW) 03:32:05 437.025 USB, Beacon 2401.1428
Gurwin Techsat 1B 01 Nov 03:31:27 03:36:21 37° 98° (E) 03:41:13 435.225 FM
Sapphire 01 Nov 03:34:07 03:38:49 30° 302° (WNW) 03:43:33 437.095 MHz 1200 baud AX-25 AFSK
TMSAT-1 01 Nov 03:37:38 03:42:17 31° 97° (E) 03:46:54 436.925 FM
AO-Echo 01 Nov 03:52:40 03:57:46 48° 287° (WNW) 04:02:46 ?
Uribyol 2 01 Nov 03:56:09 04:01:15 58° 286° (WNW) 04:06:18 436.500 FM
PCSat 01 Nov 03:57:01 04:00:42 18° 307° (NW) 04:04:24 145.825 MHz
AO-7 01 Nov 04:03:54 04:08:07 15° 93° (E) 04:12:19 29.400 - 29.500 MHz
ITAMSAT 1 01 Nov 04:04:19 04:09:22 51° 287° (WNW) 04:14:22 435.822 SSB
JAS-1B 01 Nov 04:08:13 04:14:47 36° 290° (WNW) 04:22:24 435.800 - 435.900 CW/SSB
Oscar 19 01 Nov 04:16:02 04:18:52 15° 294° (WNW) 04:21:42 437.125 CW, 437.150 USB
RS-15 01 Nov 04:42:38 04:50:06 19° 36° (NE) 04:57:42 29.354 - 29.394 USB, Beacon 29.352 USB
PANSAT 01 Nov 04:45:32 04:49:07 37° 170° (S) 04:52:41 not established
AO-27 01 Nov 04:53:34 04:56:51 17° 294° (WNW) 05:00:07 436.795 MHz FM
Gurwin Techsat 1B 01 Nov 05:12:01 05:16:01 22° 292° (WNW) 05:20:01 435.225 FM
Saudisat 1A 01 Nov 05:16:05 05:19:52 29° 112° (ESE) 05:23:40 436.775 MHz
OPAL 01 Nov 05:16:58 05:21:37 36° 70° (ENE) 05:26:13 ?
TMSAT-1 01 Nov 05:17:41 05:22:01 26° 291° (WNW) 05:26:21 436.925 FM
Uosat F 01 Nov 05:44:27 05:49:30 75° 103° (ESE) 05:54:31 435.120 FM
JAS-2 01 Nov 05:49:24 05:56:05 30° 94° (E) 06:02:25 435.800 - 435.900 CW/SSB, 435.910 FM
AO-7 01 Nov 05:53:15 06:01:38 88° 288° (WNW) 06:09:59 29.400 - 29.500 MHz
PANSAT 01 Nov 06:25:20 06:29:01 45° 183° (S) 06:32:41 not established
Hamsat 01 Nov 06:28:59 06:32:38 28° 97° (E) 06:36:18 145.90 MHz
RS-15 01 Nov 06:53:27 07:04:44 73° 60° (ENE) 07:16:29 29.354 - 29.394 USB, Beacon 29.352 USB
Saudisat 1A 01 Nov 06:55:57 06:59:23 22° 306° (NW) 07:02:51 436.775 MHz
OPAL 01 Nov 06:56:41 07:00:30 21° 262° (W) 07:04:18 ?
STRAND 1 01 Nov 07:14:01 07:19:02 59° 74° (ENE) 07:24:06 ?
Uosat F 01 Nov 07:26:58 07:27:35 10° 297° (WNW) 07:28:12 435.120 FM
JAS-2 01 Nov 07:33:42 07:41:09 49° 290° (WNW) 07:48:16 435.800 - 435.900 CW/SSB, 435.910 FM
AO-7 01 Nov 07:48:35 07:53:15 17° 304° (NW) 07:57:55 29.400 - 29.500 MHz
Hamsat 01 Nov 08:05:24 08:08:21 19° 290° (WNW) 08:11:18 145.90 MHz
PANSAT 01 Nov 08:05:36 08:08:51 26° 196° (SSW) 08:12:05 not established
SO-67 01 Nov 08:22:11 08:25:38 86° 100° (E) 08:29:04 435.3500 MHz FM
STRAND 1 01 Nov 08:56:29 08:58:32 12° 267° (W) 09:00:35 ?
RS-15 01 Nov 09:07:28 09:16:06 26° 257° (WSW) 09:25:03 29.354 - 29.394 USB, Beacon 29.352 USB
MaSat-1 01 Nov 09:11:07 09:12:13 12° 254° (WSW) 09:13:18 437.345 MHz
HO-68 01 Nov 09:22:06 09:27:59 27° 97° (E) 09:33:50 435.675 MHz FM
ISS 01 Nov 09:49:00 09:52:19 89° 134° (SE) 09:55:38 145.800 FM
UKube-1 01 Nov 10:15:20 10:18:40 21° 96° (E) 10:21:58 145.840 MHz, 145.915 MHz
Sapphire 01 Nov 10:46:11 10:47:01 10° 48° (NE) 10:47:51 437.095 MHz 1200 baud AX-25 AFSK
Oscar 11 01 Nov 10:48:44 10:52:58 55° 100° (E) 10:57:11 145.825 FM, Beacon 2401.500 USB
KITSAT 1 01 Nov 10:55:17 11:03:17 71° 113° (ESE) 11:11:19 435.175 FM
SO-50 01 Nov 10:56:46 11:01:05 53° 115° (ESE) 11:05:32 436.795 FM
PCSat 01 Nov 11:05:27 11:09:00 17° 53° (NE) 11:12:32 145.825 MHz
FUNcube-1 01 Nov 11:08:06 11:11:54 34° 98° (E) 11:15:40 145.950 - 145.970 MHz USB
HO-68 01 Nov 11:08:59 11:15:47 47° 291° (WNW) 11:22:34 435.675 MHz FM
ISS 01 Nov 11:28:36 11:29:25 11° 331° (NNW) 11:30:14 145.800 FM
UOSAT-12 01 Nov 11:38:56 11:40:05 11° 106° (ESE) 11:41:15 437.025 FM, 437.400 FM
UKube-1 01 Nov 11:51:09 11:54:45 26° 289° (WNW) 11:58:20 145.840 MHz, 145.915 MHz
ZACube-1 01 Nov 12:01:35 12:05:34 46° 285° (WNW) 12:09:32 437.345 MHz
Sapphire 01 Nov 12:25:46 12:31:14 83° 65° (ENE) 12:36:38 437.095 MHz 1200 baud AX-25 AFSK
Oscar 11 01 Nov 12:28:04 12:28:37 10° 294° (WNW) 12:29:10 145.825 FM, Beacon 2401.500 USB
SO-50 01 Nov 12:39:28 12:41:58 15° 311° (NW) 12:44:30 436.795 FM
FUNcube-1 01 Nov 12:45:39 12:47:57 15° 292° (WNW) 12:50:14 145.950 - 145.970 MHz USB
PCSat 01 Nov 12:47:27 12:52:45 56° 249° (WSW) 12:58:01 145.825 MHz
KITSAT 1 01 Nov 12:53:08 12:59:20 24° 311° (NW) 13:05:34 435.175 FM
Oscar 16 01 Nov 12:57:53 13:00:41 15° 66° (ENE) 13:03:29 437.025 USB, Beacon 2401.1428
JAS-1B 01 Nov 13:01:57 13:05:24 17° 65° (ENE) 13:08:50 435.800 - 435.900 CW/SSB
UOSAT-12 01 Nov 13:15:05 13:19:37 61° 300° (WNW) 13:24:17 437.025 FM, 437.400 FM
AO-Echo 01 Nov 13:25:09 13:27:24 13° 64° (ENE) 13:29:40 ?
Uribyol 2 01 Nov 13:33:04 13:35:32 14° 65° (ENE) 13:38:01 436.500 FM
ITAMSAT 1 01 Nov 13:40:47 13:43:43 15° 65° (ENE) 13:46:39 435.822 SSB
Oscar 19 01 Nov 13:47:23 13:52:17 47° 73° (ENE) 13:57:12 437.125 CW, 437.150 USB
AO-27 01 Nov 14:26:20 14:31:17 46° 72° (ENE) 14:36:16 436.795 MHz FM
Oscar 16 01 Nov 14:34:30 14:39:31 54° 259° (W) 14:44:34 437.025 USB, Beacon 2401.1428
Gurwin Techsat 1B 01 Nov 14:48:04 14:52:55 38° 71° (ENE) 14:57:47 435.225 FM
JAS-1B 01 Nov 14:50:01 14:55:39 49° 259° (W) 15:01:09 435.800 - 435.900 CW/SSB
TMSAT-1 01 Nov 14:54:00 14:58:36 31° 70° (ENE) 15:03:13 436.925 FM
AO-7 01 Nov 14:59:13 15:03:30 15° 55° (NE) 15:07:47 29.400 - 29.500 MHz
AO-Echo 01 Nov 15:00:40 15:05:32 60° 259° (W) 15:10:36 ?
Uribyol 2 01 Nov 15:09:16 15:14:25 61° 259° (WSW) 15:19:36 436.500 FM
ITAMSAT 1 01 Nov 15:17:37 15:22:42 54° 259° (W) 15:27:49 435.822 SSB
Saudisat 1A 01 Nov 15:25:39 15:30:05 79° 62° (ENE) 15:34:29 436.775 MHz
Oscar 19 01 Nov 15:28:47 15:31:48 16° 266° (W) 15:34:49 437.125 CW, 437.150 USB
AO-27 01 Nov 16:07:39 16:10:57 17° 266° (W) 16:14:15 436.795 MHz FM
ISS 01 Nov 16:22:17 16:24:11 14° 32° (NNE) 16:26:06 145.800 FM
Gurwin Techsat 1B 01 Nov 16:28:58 16:32:55 21° 265° (W) 16:36:53 435.225 FM
TMSAT-1 01 Nov 16:34:05 16:38:26 26° 264° (W) 16:42:49 436.925 FM
